Weather History for West Palm Beach, FL

Change the Weather History Date:

Thursday, November 24, 2011

  Actual Average Record
Temperature  
Mean Temperature 23 °C 22 °C  
Max Temperature 27 °C 26 °C 31 °C (1948)
Min Temperature 19 °C 18 °C 3 °C (1925)
Degree Days  
Heating Degree Days 0 1  
Month to date heating degree days 0 3  
Since 1 July heating degree days 0 4  
Cooling Degree Days 8 7  
Month to date cooling degree days 237 204  
Year to date cooling degree days 4526 3825  
Growing Degree Days 23 (Base 50)    
Moisture  
Dew Point 18 °C    
Average Humidity 77    
Maximum Humidity 100    
Minimum Humidity 54    
Precipitation  
Precipitation 0.00 mm 3.30 mm 4.70 mm (1932)
Month to date precipitation 1.19 3.96  
Year to date precipitation 46.85 58.16  
Snow  
Snow 0.00 cm - - ()
Month to date snowfall 0.0  
Since 1 July snowfall 0.0  
Since 1 September snowfall 0.0  
Snow Depth 0.00 cm    
Sea Level Pressure  
Sea Level Pressure 1019 hPa    
Wind  
Wind Speed 17 km/h (North)    
Max Wind Speed 34 km/h    
Max Gust Speed 42 km/h    
Visibility 16 kilometers    
Events      
T = Trace of Precipitation, MM = Missing Value Source: NWS Daily Summary

Daily Weather History Graph

Daily Weather History Graph

Search for Another Location

Airport:

Trip Planner

Search our weather history database for the weather conditions in past years. The results will help you decide how hot, cold, wet, or windy it might be!

Date:

Astronomy

Nov. 24, 2011 Rise Set
Actual Time 6:46 AM EST 5:27 PM EST
Civil Twilight 6:21 AM EST 5:52 PM EST
Nautical Twilight 5:53 AM EST 6:20 PM EST
Astronomical Twilight 5:25 AM EST 6:48 PM EST
Moon 6:00 AM EST (11/24) 4:59 PM EST (11/24)
Length of Visible Light 11h 30m
Length of Day
10h 41m
Waning Crescent, 0% of the Moon is Illuminated
Nov 24
Waning Crescent
Nov 25
New
Dec 2
First Quarter
Dec 10
Full
Dec 17
Last Quarter

Hourly Weather History & Observations

Time (EST) Temp. Heat Index Dew Point Humidity Pressure Visibility Wind Dir Wind Speed Gust Speed Precip Events Conditions
12:53 AM 21.1 °C - 21.1 °C 100% 1017.0 hPa 16.1 km WNW 9.3 km/h / 2.6 m/s - N/A   Partly Cloudy
1:29 AM 21.0 °C - 21.0 °C 100% 1016.8 hPa 16.1 km WNW 11.1 km/h / 3.1 m/s - N/A   Mostly Cloudy
1:53 AM 21.7 °C - 21.7 °C 100% 1016.8 hPa 16.1 km NW 14.8 km/h / 4.1 m/s - N/A   Mostly Cloudy
2:34 AM 21.0 °C - 21.0 °C 100% 1016.5 hPa 16.1 km NW 18.5 km/h / 5.1 m/s - N/A   Scattered Clouds
2:53 AM 20.6 °C - 20.6 °C 100% 1016.4 hPa 16.1 km NW 13.0 km/h / 3.6 m/s - N/A   Partly Cloudy
3:53 AM 20.6 °C - 20.0 °C 96% 1016.6 hPa 16.1 km NNW 16.7 km/h / 4.6 m/s - N/A   Partly Cloudy
4:04 AM 21.0 °C - 20.0 °C 94% 1016.8 hPa 16.1 km NNW 18.5 km/h / 5.1 m/s - N/A   Mostly Cloudy
4:53 AM 20.6 °C - 20.0 °C 96% 1017.0 hPa 16.1 km NNW 14.8 km/h / 4.1 m/s - N/A   Mostly Cloudy
5:53 AM 19.4 °C - 19.4 °C 100% 1017.6 hPa 16.1 km NW 7.4 km/h / 2.1 m/s - N/A   Mostly Cloudy
6:02 AM 19.0 °C - 19.0 °C 100% 1017.5 hPa 16.1 km NW 7.4 km/h / 2.1 m/s - N/A   Scattered Clouds
6:53 AM 19.4 °C - 19.4 °C 100% 1018.3 hPa 16.1 km NW 11.1 km/h / 3.1 m/s - N/A   Partly Cloudy
7:53 AM 20.6 °C - 20.0 °C 96% 1018.9 hPa 16.1 km NW 9.3 km/h / 2.6 m/s - N/A   Partly Cloudy
8:53 AM 23.3 °C - 20.0 °C 82% 1019.3 hPa 16.1 km NNW 14.8 km/h / 4.1 m/s - N/A   Scattered Clouds
9:53 AM 26.1 °C - 19.4 °C 66% 1019.8 hPa 16.1 km NNE 16.7 km/h / 4.6 m/s - N/A   Scattered Clouds
10:53 AM 26.7 °C 27.6 °C 17.8 °C 58% 1019.9 hPa 16.1 km NE 22.2 km/h / 6.2 m/s - N/A   Scattered Clouds
11:53 AM 26.7 °C 27.4 °C 16.7 °C 54% 1019.7 hPa 16.1 km NE 24.1 km/h / 6.7 m/s 37.0 km/h / 10.3 m/s N/A   Scattered Clouds
12:53 PM 26.1 °C - 16.7 °C 56% 1019.3 hPa 16.1 km NE 22.2 km/h / 6.2 m/s 37.0 km/h / 10.3 m/s N/A   Scattered Clouds
1:53 PM 26.1 °C - 16.7 °C 56% 1019.0 hPa 16.1 km NE 25.9 km/h / 7.2 m/s 35.2 km/h / 9.8 m/s N/A   Mostly Cloudy
2:53 PM 25.0 °C - 15.6 °C 56% 1019.1 hPa 16.1 km NNE 20.4 km/h / 5.7 m/s 35.2 km/h / 9.8 m/s N/A   Mostly Cloudy
3:53 PM 24.4 °C - 16.7 °C 62% 1019.4 hPa 16.1 km NE 20.4 km/h / 5.7 m/s 38.9 km/h / 10.8 m/s N/A   Scattered Clouds
4:53 PM 23.9 °C - 15.0 °C 57% 1019.9 hPa 16.1 km NE 20.4 km/h / 5.7 m/s - N/A   Scattered Clouds
5:53 PM 23.3 °C - 14.4 °C 57% 1020.2 hPa 16.1 km NE 18.5 km/h / 5.1 m/s - N/A   Mostly Cloudy
6:53 PM 22.8 °C - 15.6 °C 64% 1020.9 hPa 16.1 km NE 18.5 km/h / 5.1 m/s 33.3 km/h / 9.3 m/s N/A   Scattered Clouds
7:53 PM 22.2 °C - 14.4 °C 61% 1021.6 hPa 16.1 km ENE 22.2 km/h / 6.2 m/s 31.5 km/h / 8.7 m/s N/A   Scattered Clouds
8:53 PM 22.2 °C - 14.4 °C 61% 1022.0 hPa 16.1 km NE 16.7 km/h / 4.6 m/s 31.5 km/h / 8.7 m/s N/A   Scattered Clouds
9:53 PM 22.8 °C - 13.9 °C 57% 1022.1 hPa 16.1 km NE 22.2 km/h / 6.2 m/s - N/A   Scattered Clouds
10:53 PM 22.8 °C - 15.0 °C 61% 1022.1 hPa 16.1 km ENE 22.2 km/h / 6.2 m/s - N/A   Mostly Cloudy
11:53 PM 22.2 °C - 12.8 °C 55% 1021.8 hPa 16.1 km ENE 13.0 km/h / 3.6 m/s - N/A   Scattered Clouds